User: anonymous   Login
Location: ?????
(32.7281°N, 34.9563°E)
Time: 01:27:57
(UTC+00:00)
Language:

Cosmos 1417 Rocket - Orbit

View from above orbital plane
View from above orbital plane
View from above satellite
View from above satellite

Ground track
Ground track

The orbit data is extracted from the following two-line orbital elements,

1 13618U 82102B   21021.59280977 -.00000032  00000-0 -48593-4 0  9995
2 13618  82.9655 246.3906 0032925  54.1286 334.5754 13.76783271921911
Epoch (UTC): 21 January 2021 14:13:38
Eccentricity: 0.0032925
inclination: 82.9655°
perigee height: 951 km
apogee height: 999 km
right ascension of ascending node: 246.3906°
argument of perigee: 54.1286°
revolutions per day: 13.76783271
mean anomaly at epoch: 334.5754°
orbit number at epoch: 92191

The dashed part of the orbit path shows where the satellite is in the earth's shadow,  

DLR